Вернуться в каталог

COSMOS 1275 DEB

АктивенPO
NORAD 42223·DEBRIS·🇷🇺 Russia

Запущен Jun 4, 1981 с Plesetsk Cosmodrome

Loading…

Ближайшие Пролёты (ближайшие 24 часа)

TLE

СвежийSource: Space-Track

Эпоха: Sep 14, 2026, 06:10 UTC

1 42223U 81053UP  26257.25702100  .00002904  00000-0  92864-3 0  9996
2 42223  82.8572 246.9219 0035591 185.3052 174.7768 14.39023041615961

Отслеживайте COSMOS 1275 DEB в реальном времени с AllMySat

Download on the App Store